{"data":{"norad_id":64681,"epoch":"2026-09-20T19:20:48.404256Z","epoch_age_seconds":105177,"freshness":"FRESH","line1":"1 64681U 25139T   26263.80611579  .00013635  00000+0  41401-3 0  9991","line2":"2 64681  53.1595 296.0352 0001122  92.5616 267.5515 15.34395741 70221","mean_motion":15.34395741,"eccentricity":0.0001122,"inclination_deg":53.1595,"raan_deg":296.0352,"arg_perigee_deg":92.5616,"mean_anomaly_deg":267.5515,"bstar":0.00041401,"rev_number":7022,"period_min":93.848018573195,"perigee_km":461.94835518667,"apogee_km":463.48344257718,"semimajor_km":6840.8528988819,"source":"CELESTRAK","updated_at":"2026-09-21T09:00:35.400426Z"}}